Location: Jackson
(42.2460°N, 84.4010°W)
Time: 02:35:11
(UTC-05:00)

Vanguard 2 - All Passes

Search period start: 15 February 2026 00:00
Search period end: 25 February 2026 00:00
Orbit: 553 x 2897 km, 32.9° (Epoch: 13 February)

Date Brightness Start Highest point End Pass type
(mag) Time Alt. Az. Time Alt. Az. Time Alt. Az.
15 Feb - 07:03:26 10° SSW 07:06:06 15° SSE 07:08:30 10° SE visible
15 Feb - 09:10:00 10° SW 09:13:11 23° S 09:16:30 10° SE daylight
15 Feb - 11:17:27 10° SW 11:20:20 18° S 11:23:45 10° SSE daylight
16 Feb - 07:14:40 10° SW 07:17:56 18° S 07:20:48 10° SE daylight
16 Feb - 09:21:51 10° SW 09:25:01 22° S 09:28:17 10° SE daylight
16 Feb - 11:29:56 10° SW 11:32:12 14° SSW 11:34:45 10° SSE daylight
17 Feb - 05:20:11 10° S 05:22:22 12° SSE 05:24:18 10° SE visible
17 Feb - 07:26:10 10° SW 07:29:47 21° S 07:32:54 10° ESE daylight
17 Feb - 09:33:49 10° WSW 09:36:51 21° S 09:39:59 10° SE daylight
17 Feb - 11:43:38 10° SSW 11:44:02 10° SSW 11:44:27 10° SSW daylight
18 Feb - 05:30:35 10° SSW 05:34:15 16° SSE 05:37:15 10° SE visible
18 Feb - 07:37:49 10° SW 07:41:37 24° S 07:44:53 10° ESE daylight
18 Feb - 09:45:54 10° WSW 09:48:40 18° SSW 09:51:31 10° SSE daylight
19 Feb - 05:41:36 10° SW 05:46:08 20° S 05:49:40 10° ESE visible
19 Feb - 07:49:35 10° WSW 07:53:28 25° S 07:56:46 10° SE daylight
19 Feb - 09:58:10 10° SW 10:00:28 15° SSW 10:02:49 10° SSE daylight
20 Feb - 03:46:25 10° S 03:50:07 14° SSE 03:53:12 10° SE visible
20 Feb - 05:52:55 10° SW 05:58:01 24° S 06:01:50 10° ESE visible
20 Feb - 08:01:26 10° WSW 08:05:17 24° S 08:08:34 10° SE daylight
20 Feb - 10:10:54 10° SW 10:12:14 11° SSW 10:13:35 10° S daylight
21 Feb - 03:56:36 10° SSW 04:02:02 18° SSE 04:06:11 10° ESE visible
21 Feb - 06:04:26 10° SW 06:09:54 27° S 06:13:52 10° ESE visible
21 Feb - 08:13:22 10° WSW 08:17:06 23° SSW 08:20:16 10° SE daylight
22 Feb - 04:07:24 10° SSW 04:13:57 23° SSE 04:18:39 10° ESE visible
22 Feb - 06:16:06 10° WSW 06:21:45 30° S 06:25:49 10° ESE visible
22 Feb - 08:25:25 10° WSW 08:28:51 20° SSW 08:31:52 10° SSE daylight
23 Feb - 02:12:03 10° S 02:17:20 15° SSE 02:21:39 10° SE night (unlit)
23 Feb - 04:18:32 10° SW 04:25:51 27° S 04:30:53 10° ESE visible
23 Feb - 06:27:51 10° WSW 06:33:36 31° S 06:37:42 10° ESE visible
23 Feb - 08:37:36 10° WSW 08:40:35 17° SSW 08:43:15 10° SSE daylight
24 Feb - 02:21:52 10° SSW 02:29:15 19° SSE 02:34:46 10° ESE visible
24 Feb - 04:29:53 10° SW 04:37:44 32° S 04:42:59 10° ESE visible
24 Feb - 06:39:41 10° WSW 06:45:25 31° S 06:49:31 10° SE visible
24 Feb - 08:50:04 10° SW 08:52:17 13° SSW 08:54:19 10° S daylight
